FW4110 Weather Reports


time (UTC)temp
F
wind
direction
speed
knots
gust
knots
rain 1hr
in
rain 24hr
in
rain mn
in
humidity
%
barometer
mb
20260902163102 93 7 0.9 7.8 0.00 0.00 0.00 73 1018.6
20260902161553 93 254 3.5 8.7 0.00 0.00 0.00 73 1018.7
20260902160041 93 145 1.7 5.2 0.00 0.00 0.00 73 1018.8
20260902154535 92 268 2.6 7.8 0.00 0.00 0.00 73 1018.9
20260902153029 91 28 2.6 7.0 0.00 0.00 0.00 73 1018.9
20260902151524 91 339 0.0 5.2 0.00 0.00 0.00 75 1018.7
20260902150018 90 303 0.9 6.1 0.00 0.00 0.00 75 1018.8
20260902144527 89 211 1.7 6.1 0.00 0.00 0.00 75 1018.8
20260902143015 88 225 2.6 6.1 0.00 0.00 0.00 77 1018.7
20260902141510 87 163 0.9 5.2 0.00 0.00 0.00 77 1018.9
20260902140001 85 244 1.7 5.2 0.00 0.00 0.00 79 1019.0
20260902134700 85 157 0.9 4.3 0.00 0.00 0.00 79 1019.1
20260902133054 84 261 0.0 1.7 0.00 0.00 0.00 79 1019.2
20260902131550 83 268 0.0 3.5 0.00 0.00 0.00 79 1019.2
20260902130053 81 265 0.0 2.6 0.00 0.00 0.00 79 1019.0
20260902124544 80 140 0.0 0.0 0.00 0.00 0.00 83 1019.2
20260902123047 76 140 0.0 0.0 0.00 0.00 0.00 86 1019.1
20260902121538 0 0.0 0.0 0.00 0.00 0.00 1019.0
20260902120035 0 0.0 0.0 0.00 0.00 0.00 1019.1
20260902114536 0 0.0 0.0 0.00 0.00 0.00 1018.8
20260902113034 0 0.0 0.0 0.00 0.00 0.00 1018.7
20260902111521 0 0.0 0.0 0.00 0.00 0.00 1018.5
20260902110012 0 0.0 0.0 0.00 0.00 0.00 1018.5
20260902104509 0 0.0 0.0 0.00 0.00 0.00 1018.4
20260902103004 0 0.0 0.0 0.00 0.00 0.00 1018.3
20260902101605 0 156 0.0 0.0 0.00 0.00 0.00 1018.1
20260902100108 77 163 0.0 0.0 0.00 0.00 0.00 86 1018.0
20260902094552 77 191 0.0 0.0 0.00 0.00 0.00 88 1018.0
20260902093050 77 191 0.0 0.0 0.00 0.00 0.00 88 1017.9
20260902091642 78 191 0.0 0.0 0.00 0.00 0.00 87 1017.9
20260902090141 79 175 0.0 1.7 0.00 0.00 0.00 86 1017.8
20260902084536 79 155 0.0 2.6 0.00 0.00 0.00 86 1017.7
20260902083034 80 156 0.9 3.5 0.00 0.00 0.00 86 1017.6
20260902081529 79 154 0.0 0.0 0.00 0.00 0.00 87 1017.7
20260902080026 80 166 0.0 2.6 0.00 0.00 0.00 86 1017.6
20260902074523 80 166 0.9 2.6 0.00 0.00 0.00 85 1017.7
20260902073021 80 187 1.7 4.3 0.00 0.00 0.00 86 1017.6
20260902071618 81 156 1.7 3.5 0.00 0.00 0.00 86 1017.8
20260902070015 81 161 0.0 2.6 0.00 0.00 0.00 86 1017.8
20260902064512 81 152 1.7 3.5 0.00 0.00 0.00 86 1017.8
20260902063010 81 171 1.7 3.5 0.00 0.00 0.00 86 1017.9
20260902061507 81 166 0.9 3.5 0.00 0.00 0.00 86 1017.8
20260902060006 82 189 1.7 4.3 0.00 0.00 0.00 86 1017.9
20260902054702 82 170 0.9 3.5 0.00 0.00 0.00 86 1017.8
20260902053109 82 133 2.6 5.2 0.00 0.00 0.00 85 1017.8
20260902051654 82 178 2.6 3.5 0.00 0.00 0.00 85 1017.8
20260902050104 83 150 1.7 5.2 0.00 0.00 0.00 85 1017.7
20260902044548 83 178 2.6 4.3 0.00 0.00 0.00 85 1017.5
20260902043050 83 149 2.6 4.3 0.00 0.00 0.00 84 1017.6
20260902041544 83 159 0.9 2.6 0.00 0.00 0.00 84 1017.7
20260902040042 83 164 0.9 3.5 0.00 0.00 0.00 83 1017.6
20260902034539 84 155 1.7 5.2 0.00 0.00 0.00 83 1017.7
20260902033038 84 168 0.0 2.6 0.00 0.00 0.00 82 1017.7
20260902031535 84 186 0.0 2.6 0.00 0.00 0.00 82 1017.6
20260902030034 85 178 0.0 1.7 0.00 0.00 0.00 81 1017.6
20260902024531 85 161 0.9 3.5 0.00 0.00 0.00 80 1017.5
20260902023040 86 151 1.7 3.5 0.00 0.00 0.00 79 1017.3
20260902021527 86 150 1.7 3.5 0.00 0.00 0.00 78 1017.1
20260902020026 86 142 0.9 4.3 0.00 0.00 0.00 77 1017.0
20260902014533 87 166 0.9 2.6 0.00 0.00 0.00 77 1016.8
20260902013022 87 174 0.9 1.7 0.00 0.00 0.00 75 1016.6
20260902011538 88 158 0.9 2.6 0.00 0.00 0.00 74 1016.5
20260902010017 88 152 0.9 1.7 0.00 0.00 0.00 73 1016.4
20260902004514 89 178 0.0 0.9 0.00 0.00 0.00 71 1016.4
20260902003013 89 176 0.0 0.9 0.00 0.00 0.00 70 1016.5
20260902001511 91 162 0.0 1.7 0.00 0.00 0.00 67 1016.3
20260902000009 93 173 0.0 0.9 0.00 0.00 0.00 67 1016.3
20260901234506 95 192 0.0 0.9 0.00 0.00 0.00 65 1016.3
20260901233004 96 258 0.0 1.7 0.00 0.00 0.00 64 1016.5
20260901231503 96 178 0.0 2.6 0.00 0.00 0.00 62 1016.5
20260901230001 97 159 0.0 3.5 0.00 0.00 0.00 61 1016.5
20260901224606 98 292 0.9 5.2 0.00 0.00 0.00 59 1016.5
20260901223058 99 193 0.0 4.3 0.00 0.00 0.00 59 1016.5
20260901221602 99 161 0.9 6.1 0.00 0.00 0.00 58 1016.5
20260901220056 101 104 0.9 4.3 0.00 0.00 0.00 58 1016.4
20260901214601 100 298 2.6 7.0 0.00 0.00 0.00 58 1016.4
20260901213055 100 315 0.0 4.3 0.00 0.00 0.00 59 1016.4
20260901211550 100 151 2.6 6.1 0.00 0.00 0.00 59 1016.5
20260901210106 100 171 2.6 6.1 0.00 0.00 0.00 57 1016.8
20260901204544 100 147 0.0 3.5 0.00 0.00 0.00 59 1016.9
20260901203039 99 342 0.0 4.3 0.00 0.00 0.00 60 1017.0
20260901201537 99 341 0.9 5.2 0.00 0.00 0.00 59 1017.2
20260901200034 99 250 0.0 7.0 0.00 0.00 0.00 59 1017.3
20260901194533 99 237 1.7 5.2 0.00 0.00 0.00 59 1017.4
20260901193032 97 337 0.0 6.1 0.00 0.00 0.00 63 1017.6
20260901191536 98 226 0.9 5.2 0.00 0.00 0.00 61 1017.6
20260901190019 98 38 1.7 4.3 0.00 0.00 0.00 64 1017.8
20260901184513 96 283 0.0 8.7 0.00 0.00 0.00 66 1018.1
20260901183007 96 343 3.5 7.8 0.00 0.00 0.00 65 1018.2
20260901181603 96 313 1.7 5.2 0.00 0.00 0.00 66 1018.4
20260901180056 95 357 1.7 5.2 0.00 0.00 0.00 68 1018.5
20260901174551 95 335 0.9 5.2 0.00 0.00 0.00 67 1018.7
20260901173044 94 291 2.6 7.8 0.00 0.00 0.00 69 1018.7
20260901171537 94 341 1.7 3.5 0.00 0.00 0.00 70 1018.8
20260901170032 93 181 1.7 4.3 0.00 0.00 0.00 72 1019.0
20260901164525 93 277 0.9 4.3 0.00 0.00 0.00 73 1019.2